Regional Weather Roundup
Issued by NWS

Home | Current Version | Previous Version | Graphics & Text | Print | Product List | Glossary On
Versions: 1 2 3 4 5 6 7 8 9 10 11 12 13 14 15 16 17 18 19 20 21 22 23 24 25 26 27 28 29 30 31 32 33 34 35 36 37 38 39 40 41 42 43 44 45 46 47 48 49 50
000
ASUS45 KABQ 300501
RWRNM
NEW MEXICO REGIONAL WEATHER ROUNDUP
NATIONAL WEATHER SERVICE ALBUQUERQUE NM
1100 PM MDT FRI MAY 29 2015

NOTE: "FAIR" MEANS FEW OR NO CLOUDS BELOW 12,000 FEET AGL WITH NO
       SIGNIFICANT WEATHER OR OBSTRUCTIONS TO VISION.

      THIS PRODUCT IS RELEASED AS TWO VERSIONS.  ONE VERSION NEAR
      THE TOP OF THE HOUR CONTAINING PRELIMINARY DATA FROM ALBUQUERQUE
      AND OTHER STATIONS.  A FINAL VERSION WITH ADDITIONAL DATA IS
      ISSUED ABOUT 10 MINUTES AFTER THE HOUR.

NMZ501-503-504-510>518-300600-
NORTHWEST PLATEAU/NORTHCENTRAL MOUNTAINS

CITY           SKY/WX    TMP DP  RH WIND       PRES   REMARKS
FARMINGTON     CLEAR     57  25  29 NE8       30.17R
SANTA FE       PTCLDY    60  38  43 SE10      30.23R
TAOS           PTCLDY    55  36  47 E18G25    30.29R
ANGEL FIRE     CLOUDY    49  40  70 NE6       30.40R

$$
NMZ402-403-502-505>509-300600-
WESTCENTRAL MOUNTAINS/SOUTHWEST MOUNTAINS

CITY           SKY/WX    TMP DP  RH WIND       PRES   REMARKS
GALLUP         CLEAR     52  30  43 CALM      30.25R
GRANTS         CLEAR     52  30  43 CALM      30.27R
SILVER CITY      N/A     63  16  16 N8        30.15R

$$
NMZ407-409-411-412-300600-
SOUTHERN DESERTS

CITY           SKY/WX    TMP DP  RH WIND       PRES   REMARKS
LORDSBURG      FAIR      70  21  16 CALM      30.04R
DEMING         CLEAR     70  19  14 NW9       30.03R
HOLLOMAN AFB   CLOUDY    73  28  19 S7        30.00R
ALAMOGORDO     MOCLDY    72  25  17 SE3       30.02R
T OR C         PTCLDY    74  31  20 NE13      30.08R

$$
NMZ519>523-300600-
CENTRAL VALLEYS/CENTRAL HIGHLANDS

CITY           SKY/WX    TMP DP  RH WIND       PRES   REMARKS
ALBUQUERQUE    PTCLDY    71  30  21 NE5       30.17R
DOUBLE EAGLE   PTCLDY    58  33  39 NW8       30.20R
MORIARTY ARPT  FAIR      58  44  59 E16G24    30.27R
CLINES CORNERS MOCLDY    53  45  74 E16       30.31R
BELEN          FAIR      61  33  35 N5        30.16R
SOCORRO        NOT AVBL

$$
NMZ524>526-539-540-300600-
SOUTHCENTRAL MOUNTAINS

CITY           SKY/WX    TMP DP  RH WIND       PRES   REMARKS
RUIDOSO        NOT AVBL

$$
NMZ527>531-300600-
NORTHEAST HIGHLANDS/NORTHEAST PLAINS

CITY           SKY/WX    TMP DP  RH WIND       PRES   REMARKS
LAS VEGAS      PTCLDY    49  45  86 N6        30.33R
RATON          CLOUDY    50  44  80 N6        30.32R
CLAYTON        CLOUDY    52  50  93 NE12      30.29R

$$
NMZ532>537-300600-
EASTCENTRAL PLAINS

CITY           SKY/WX    TMP DP  RH WIND       PRES   REMARKS
TUCUMCARI      CLOUDY    60  55  83 N7        30.18R
CANNON AFB     NOT AVBL
CLOVIS AIRPORT CLOUDY    55  54  94 NE6       30.16R

$$
NMZ028-029-538-300600-
SOUTHEAST PLAINS

CITY           SKY/WX    TMP DP  RH WIND       PRES   REMARKS
ROSWELL        PTCLDY    69  50  50 NE10      30.07R
ARTESIA        PTCLDY    73  57  56 SE15G22   30.05R
CARLSBAD       PTCLDY    74  59  59 E8        30.02R
HOBBS          CLOUDY    59  52  77 E5        30.08F


$$



USA.gov is the U.S. government's official web portal to all federal, state and local government web resources and services.